29 Sep
2006
29 Sep
'06
11:24 p.m.
ISS 1 25544U 98067A 06272.97225694 .00062462 00000-0 38548-3 0 7686 2 25544 051.6375 007.6764 0013198 038.8477 300.2048 15.76416158449680
6657
Age (days ago)
6657
Last active (days ago)
0 comments
1 participants
participants (1)
-
Dave Larsen PhD